GW4499 Weather Reports


Display with metric or nautical units.
time (UTC)temp
F
wind
direction
speed
MPH
gust
MPH
rain 1hr
in
rain 24hr
in
rain mn
in
humidity
%
barometer
mb
20260905162520 88 0.0 1.0 0.00 0.00 0.00 30 1018.9
20260905161520 87 203 1.0 2.0 0.00 0.00 0.00 29 1018.6
20260905160520 87 0.0 2.0 0.00 0.00 0.00 29 1018.6
20260905155520 85 0.0 1.0 0.00 0.00 0.00 31 1018.3
20260905154520 84 0.0 2.0 0.00 0.00 0.00 35 1018.4
20260905153540 83 0.0 1.0 0.00 0.00 0.00 35 1018.2
20260905152520 82 0.0 1.0 0.00 0.00 0.00 39 1018.2
20260905151520 80 0.0 1.0 0.00 0.00 0.00 40 1017.9
20260905150520 78 0.0 1.0 0.00 0.00 0.00 44 1017.7
20260905145520 75 0.0 1.0 0.00 0.00 0.00 48 1017.8
20260905144520 73 0.0 1.0 0.00 0.00 0.00 53 1017.7
20260905143520 69 0.0 0.0 0.00 0.00 0.00 64 1017.0
20260905142520 67 0.0 0.0 0.00 0.00 0.00 67 1017.1
20260905141520 65 0.0 0.0 0.00 0.00 0.00 68 1016.6
20260905140520 63 0.0 0.0 0.00 0.00 0.00 73 1016.3
20260905135520 62 0.0 0.0 0.00 0.00 0.00 70 1016.5
20260905134520 61 0.0 0.0 0.00 0.00 0.00 73 1016.3
20260905133520 60 0.0 0.0 0.00 0.00 0.00 76 1016.3
20260905132520 59 0.0 0.0 0.00 0.00 0.00 75 1016.1
20260905131520 58 0.0 0.0 0.00 0.00 0.00 75 1015.8
20260905130520 58 0.0 0.0 0.00 0.00 0.00 75 1015.6
20260905125520 58 0.0 0.0 0.00 0.00 0.00 73 1015.7
20260905124540 58 0.0 0.0 0.00 0.00 0.00 74 1015.6
20260905123520 58 0.0 0.0 0.00 0.00 0.00 71 1015.5
20260905122520 59 0.0 0.0 0.00 0.00 0.00 71 1015.8
20260905121520 59 0.0 0.0 0.00 0.00 0.00 70 1015.7
20260905120520 59 0.0 0.0 0.00 0.00 0.00 69 1015.9
20260905115521 60 0.0 0.0 0.00 0.00 0.00 69 1016.1
20260905114520 61 0.0 0.0 0.00 0.00 0.00 67 1016.1
20260905113520 61 0.0 0.0 0.00 0.00 0.00 66 1016.1
20260905112519 61 0.0 0.0 0.00 0.00 0.00 67 1016.7
20260905111521 61 0.0 0.0 0.00 0.00 0.00 63 1016.6
20260905110519 61 0.0 0.0 0.00 0.00 0.00 60 1016.5
20260905105520 62 0.0 0.0 0.00 0.00 0.00 61 1016.8
20260905104520 62 0.0 0.0 0.00 0.00 0.00 62 1016.8
20260905103520 61 0.0 1.0 0.00 0.00 0.00 64 1016.7
20260905102520 62 0.0 0.0 0.00 0.00 0.00 63 1016.6
20260905101520 62 0.0 0.0 0.00 0.00 0.00 64 1016.7
20260905100519 62 0.0 1.0 0.00 0.00 0.00 63 1016.5
20260905095519 62 0.0 0.0 0.00 0.00 0.00 65 1017.0
20260905094520 63 0.0 0.0 0.00 0.00 0.00 63 1017.0
20260905093519 64 0.0 0.0 0.00 0.00 0.00 63 1016.9
20260905092520 64 0.0 0.0 0.00 0.00 0.00 63 1016.7
20260905091519 64 0.0 0.0 0.00 0.00 0.00 60 1016.8
20260905090520 65 0.0 0.0 0.00 0.00 0.00 59 1017.1
20260905085519 65 0.0 0.0 0.00 0.00 0.00 58 1017.0
20260905084519 66 0.0 0.0 0.00 0.00 0.00 55 1016.9
20260905083520 66 0.0 0.0 0.00 0.00 0.00 52 1016.9
20260905082520 67 0.0 1.0 0.00 0.00 0.00 51 1016.9
20260905081519 67 0.0 0.0 0.00 0.00 0.00 51 1016.9
20260905080539 66 0.0 0.0 0.00 0.00 0.00 52 1016.9
20260905075540 67 0.0 0.0 0.00 0.00 0.00 50 1016.9
20260905074519 68 0.0 0.0 0.00 0.00 0.00 50 1017.1
20260905073520 68 0.0 0.0 0.00 0.00 0.00 50 1017.0
20260905072519 68 0.0 0.0 0.00 0.00 0.00 51 1017.0
20260905071539 68 0.0 0.0 0.00 0.00 0.00 52 1017.0
20260905070519 68 0.0 0.0 0.00 0.00 0.00 54 1016.9
20260905065519 68 0.0 0.0 0.00 0.00 0.00 54 1016.6
20260905064519 68 0.0 0.0 0.00 0.00 0.00 55 1016.6
20260905063520 69 0.0 0.0 0.00 0.00 0.00 57 1016.9
20260905062519 69 0.0 0.0 0.00 0.00 0.00 58 1016.2
20260905061519 69 0.0 1.0 0.00 0.00 0.00 59 1016.2
20260905060519 69 0.0 0.0 0.00 0.00 0.00 57 1016.2
20260905055519 69 0.0 0.0 0.00 0.00 0.00 58 1016.2
20260905054519 69 0.0 0.0 0.00 0.00 0.00 57 1016.3
20260905053539 70 0.0 0.0 0.00 0.00 0.00 58 1016.1
20260905052539 70 0.0 1.0 0.00 0.00 0.00 57 1015.6
20260905051519 70 0.0 0.0 0.00 0.00 0.00 53 1015.7
20260905050519 71 0.0 0.0 0.00 0.00 0.00 52 1016.0
20260905045519 71 0.0 1.0 0.00 0.00 0.00 52 1015.7
20260905044519 71 0.0 0.0 0.00 0.00 0.00 49 1015.9
20260905043539 72 0.0 0.0 0.00 0.00 0.00 51 1015.9
20260905042520 73 0.0 1.0 0.00 0.00 0.00 49 1016.0
20260905041519 73 0.0 0.0 0.00 0.00 0.00 45 1015.9
20260905040519 74 0.0 0.0 0.00 0.00 0.00 44 1016.2
20260905035519 74 0.0 0.0 0.00 0.00 0.00 43 1015.5
20260905034519 74 0.0 0.0 0.00 0.00 0.00 42 1015.5
20260905033519 74 0.0 2.0 0.00 0.00 0.00 44 1015.6
20260905032519 75 0.0 0.0 0.00 0.00 0.00 44 1015.2
20260905031519 75 0.0 1.0 0.00 0.00 0.00 41 1015.0
20260905030519 75 0.0 0.0 0.00 0.00 0.00 42 1015.1
20260905025519 76 0.0 2.0 0.00 0.00 0.00 41 1013.9
20260905024519 77 0.0 1.0 0.00 0.00 0.00 39 1014.1
20260905023519 78 0.0 1.0 0.00 0.00 0.00 38 1014.0
20260905022519 79 0.0 0.0 0.00 0.00 0.00 35 1013.2
20260905021519 81 0.0 0.0 0.00 0.00 0.00 32 1013.4
20260905020519 82 0.0 0.0 0.00 0.00 0.00 30 1013.5
20260905015519 83 0.0 1.0 0.00 0.00 0.00 28 1012.7
20260905014519 83 0.0 2.0 0.00 0.00 0.00 27 1012.6
20260905013519 84 0.0 2.0 0.00 0.00 0.00 27 1013.0
20260905012519 84 158 1.0 3.0 0.00 0.00 0.00 26 1012.6
20260905011519 85 158 1.0 5.0 0.00 0.00 0.00 26 1012.6
20260905010519 85 158 1.0 4.0 0.00 0.00 0.00 25 1012.6
20260905005519 86 158 1.0 3.0 0.00 0.00 0.00 22 1012.8
20260905004519 87 113 1.0 2.0 0.00 0.00 0.00 21 1012.9
20260905003519 87 158 1.0 3.0 0.00 0.00 0.00 21 1012.8
20260905003019 87 180 1.0 6.0 0.00 0.00 0.00 21 1012.8
20260905002018 88 0.0 3.0 0.00 0.00 0.00 21 1013.1
20260905001019 88 158 1.0 3.0 0.00 0.00 0.00 21 1013.1
20260905000019 88 0.0 3.0 0.00 0.00 0.00 21 1013.1
20260904235040 87 180 1.0 5.0 0.00 0.00 0.00 22 1012.8
20260904234039 88 0.0 1.0 0.00 0.00 0.00 22 1013.2
20260904233019 89 158 1.0 4.0 0.00 0.00 0.00 20 1013.1
20260904232019 90 0.0 1.0 0.00 0.00 0.00 21 1013.4
20260904231018 90 0.0 3.0 0.00 0.00 0.00 20 1013.5
20260904230019 90 203 1.0 3.0 0.00 0.00 0.00 18 1013.6
20260904225019 91 158 1.0 4.0 0.00 0.00 0.00 18 1013.7
20260904224018 90 180 1.0 5.0 0.00 0.00 0.00 19 1013.9
20260904223019 91 158 2.0 5.0 0.00 0.00 0.00 17 1014.4
20260904222019 91 158 1.0 4.0 0.00 0.00 0.00 18 1014.3
20260904221019 91 113 2.0 4.0 0.00 0.00 0.00 17 1014.3
20260904220018 92 158 2.0 6.0 0.00 0.00 0.00 18 1014.4
20260904215100 92 135 1.0 5.0 0.00 0.00 0.00 17 1014.5
20260904214041 93 158 1.0 3.0 0.00 0.00 0.00 18 1014.9
20260904213020 93 113 2.0 7.0 0.00 0.00 0.00 17 1014.9
20260904212020 93 0.0 3.0 0.00 0.00 0.00 18 1015.0
20260904211020 93 203 1.0 5.0 0.00 0.00 0.00 18 1015.1
20260904210020 93 0.0 3.0 0.00 0.00 0.00 18 1015.1
20260904205018 93 158 2.0 5.0 0.00 0.00 0.00 19 1015.3
20260904204040 93 203 1.0 4.0 0.00 0.00 0.00 20 1015.4
20260904203021 93 90 1.0 5.0 0.00 0.00 0.00 19 1015.4
20260904202020 92 113 1.0 4.0 0.00 0.00 0.00 19 1015.4
20260904201020 93 180 2.0 6.0 0.00 0.00 0.00 19 1015.8
20260904200100 93 158 1.0 4.0 0.00 0.00 0.00 18 1015.7
20260904195020 92 158 2.0 5.0 0.00 0.00 0.00 19 1015.8
20260904194020 92 135 2.0 5.0 0.00 0.00 0.00 20 1016.0
20260904193101 92 113 2.0 6.0 0.00 0.00 0.00 21 1016.0
20260904192020 93 180 2.0 6.0 0.00 0.00 0.00 20 1016.1
20260904191021 92 203 2.0 6.0 0.00 0.00 0.00 23 1016.5
20260904190020 92 225 1.0 3.0 0.00 0.00 0.00 21 1016.6
20260904185021 92 158 1.0 6.0 0.00 0.00 0.00 22 1016.8
20260904184040 92 0.0 2.0 0.00 0.00 0.00 23 1017.2
20260904183020 90 158 1.0 3.0 0.00 0.00 0.00 26 1017.2
20260904182040 89 135 1.0 4.0 0.00 0.00 0.00 27 1017.2
20260904181020 87 135 1.0 2.0 0.00 0.00 0.00 28 1017.4
20260904180020 87 158 2.0 4.0 0.00 0.00 0.00 28 1017.5
20260904175040 86 135 3.0 6.0 0.00 0.00 0.00 27 1017.6
20260904174020 87 135 1.0 3.0 0.00 0.00 0.00 27 1018.0
20260904173020 86 135 1.0 4.0 0.00 0.00 0.00 29 1017.8
20260904172020 85 135 1.0 4.0 0.00 0.00 0.00 29 1017.9
20260904171020 84 113 1.0 3.0 0.00 0.00 0.00 29 1017.5
20260904170020 82 135 1.0 5.0 0.00 0.00 0.00 34 1017.3
20260904165040 82 158 2.0 4.0 0.00 0.00 0.00 32 1017.3
20260904164020 81 225 1.0 6.0 0.00 0.00 0.00 34 1017.1